AAL2274 KORF-KDFW

Flight info

Callsign AAL2274
Flight time N/A
Altitude 34000
Route NUTIY1 RDU SHPRD AWYAT Q52 CHOPZ THRSR VLKNN Q30 IZAAC YUYUN BEREE3
Aircraft A321/M-SDE3FGHIRWY/LB1

Departure

Time 2026-04-22 16:54
Airport Norfolk International Airport (KORF)

Arrival

Time N/A
Airport Dallas Fort Worth International Airport (KDFW)
Time Latitude Longitude Altitude Speed Heading
2026-04-22 16:38 36.89881 -76.20217 3 ft 0 kts 13°
2026-04-22 16:47 36.89878 -76.20218 3 ft 3 kts 13°
2026-04-22 16:47 36.89852 -76.20226 5 ft 4 kts 21°
2026-04-22 16:47 36.89831 -76.20241 3 ft 4 kts 64°
2026-04-22 16:47 36.89829 -76.20255 3 ft 0 kts 113°
2026-04-22 16:50 36.89823 -76.20239 3 ft 6 kts 113°
2026-04-22 16:50 36.89797 -76.20163 4 ft 13 kts 113°
2026-04-22 16:51 36.89758 -76.20051 3 ft 15 kts 113°
2026-04-22 16:51 36.89746 -76.19934 3 ft 14 kts 56°
2026-04-22 16:51 36.89825 -76.19851 3 ft 17 kts 38°
2026-04-22 16:51 36.89928 -76.19752 3 ft 19 kts 38°
2026-04-22 16:52 36.90034 -76.19646 4 ft 20 kts 38°
2026-04-22 16:52 36.90148 -76.19547 4 ft 20 kts 30°
2026-04-22 16:52 36.90270 -76.19467 3 ft 20 kts 35°
2026-04-22 16:52 36.90381 -76.19359 3 ft 20 kts 38°
2026-04-22 16:53 36.90494 -76.19250 2 ft 21 kts 38°
2026-04-22 16:53 36.90599 -76.19148 2 ft 14 kts 45°
2026-04-22 16:53 36.90584 -76.19039 1 ft 15 kts 129°
2026-04-22 16:53 36.90516 -76.18974 0 ft 10 kts 197°
2026-04-22 16:54 36.90421 -76.19062 1 ft 38 kts 218°
2026-04-22 16:54 36.90034 -76.19435 4 ft 102 kts 217°
2026-04-22 16:54 36.89323 -76.20115 27 ft 152 kts 216°
2026-04-22 16:54 36.88498 -76.20882 759 ft 142 kts 219°
2026-04-22 16:55 36.87696 -76.21614 1451 ft 145 kts 218°
2026-04-22 16:55 36.86855 -76.22372 2000 ft 155 kts 218°
2026-04-22 16:55 36.85937 -76.23198 2342 ft 169 kts 220°
2026-04-22 16:55 36.84957 -76.24065 2685 ft 181 kts 221°
2026-04-22 16:56 36.83874 -76.25053 2823 ft 204 kts 223°
2026-04-22 16:56 36.82772 -76.26288 2992 ft 219 kts 239°
2026-04-22 16:56 36.82254 -76.28121 3218 ft 235 kts 263°
2026-04-22 16:56 36.81977 -76.30156 3886 ft 239 kts 261°
2026-04-22 16:57 36.81679 -76.32191 4682 ft 241 kts 261°
2026-04-22 16:57 36.81363 -76.34309 5256 ft 252 kts 262°
2026-04-22 16:57 36.81052 -76.36482 5923 ft 254 kts 262°
2026-04-22 16:57 36.80740 -76.38662 6700 ft 255 kts 261°
2026-04-22 16:58 36.80530 -76.40106 7153 ft 256 kts 261°
2026-04-22 16:58 36.80107 -76.43005 8094 ft 256 kts 261°
2026-04-22 16:58 36.79786 -76.45189 8837 ft 256 kts 261°
2026-04-22 16:58 36.79465 -76.47367 9582 ft 255 kts 261°
2026-04-22 16:59 36.79142 -76.49546 10287 ft 256 kts 261°
2026-04-22 16:59 36.78807 -76.51810 10475 ft 276 kts 261°
2026-04-22 16:59 36.78447 -76.54261 10602 ft 296 kts 261°
2026-04-22 16:59 36.78070 -76.56829 10904 ft 308 kts 261°
2026-04-22 17:00 36.77679 -76.59478 11479 ft 312 kts 262°
2026-04-22 17:00 36.76883 -76.64855 12668 ft 318 kts 262°
2026-04-22 17:00 36.76478 -76.67577 13242 ft 321 kts 262°
2026-04-22 17:01 36.76067 -76.70333 13829 ft 324 kts 262°
2026-04-22 17:01 36.75652 -76.73116 14354 ft 327 kts 262°
2026-04-22 17:01 36.75230 -76.75927 14865 ft 331 kts 262°
2026-04-22 17:01 36.74804 -76.78766 15351 ft 335 kts 262°
2026-04-22 17:02 36.74373 -76.81633 15845 ft 339 kts 262°
2026-04-22 17:02 36.73935 -76.84542 16328 ft 343 kts 262°
2026-04-22 17:02 36.73499 -76.87447 16815 ft 347 kts 262°
2026-04-22 17:02 36.73047 -76.90430 17300 ft 350 kts 262°
2026-04-22 17:03 36.72591 -76.93437 17794 ft 354 kts 262°
2026-04-22 17:03 36.72133 -76.96467 18274 ft 358 kts 262°
2026-04-22 17:03 36.71649 -76.99528 18701 ft 363 kts 259°
2026-04-22 17:03 36.70802 -77.02483 19125 ft 370 kts 248°
2026-04-22 17:04 36.69530 -77.05313 19554 ft 375 kts 244°
2026-04-22 17:04 36.68214 -77.08134 20012 ft 377 kts 244°
2026-04-22 17:04 36.66895 -77.10971 20470 ft 380 kts 244°
2026-04-22 17:04 36.65566 -77.13836 20926 ft 383 kts 244°
2026-04-22 17:05 36.64225 -77.16726 21368 ft 385 kts 244°
2026-04-22 17:05 36.62872 -77.19636 21813 ft 388 kts 244°
2026-04-22 17:05 36.61534 -77.22512 22229 ft 391 kts 244°
2026-04-22 17:05 36.60166 -77.25450 22615 ft 394 kts 244°
2026-04-22 17:06 36.58785 -77.28407 23002 ft 397 kts 244°
2026-04-22 17:06 36.57390 -77.31396 23393 ft 399 kts 243°
2026-04-22 17:06 36.55988 -77.34396 23767 ft 402 kts 243°
2026-04-22 17:06 36.54575 -77.37414 24070 ft 404 kts 243°
2026-04-22 17:07 36.53154 -77.40445 24395 ft 406 kts 243°
2026-04-22 17:07 36.51723 -77.43491 24727 ft 408 kts 243°
2026-04-22 17:07 36.50303 -77.46514 25058 ft 410 kts 243°
2026-04-22 17:07 36.48865 -77.49587 25389 ft 411 kts 243°
2026-04-22 17:08 36.47420 -77.52673 25718 ft 413 kts 243°
2026-04-22 17:08 36.45969 -77.55766 26037 ft 415 kts 243°
2026-04-22 17:08 36.44510 -77.58872 26359 ft 416 kts 243°
2026-04-22 17:08 36.43062 -77.61950 26660 ft 418 kts 243°
2026-04-22 17:09 36.41590 -77.65078 26968 ft 420 kts 243°
2026-04-22 17:09 36.40113 -77.68214 27272 ft 422 kts 243°
2026-04-22 17:09 36.39125 -77.70302 27469 ft 423 kts 243°
2026-04-22 17:09 36.37125 -77.74524 27868 ft 425 kts 243°
2026-04-22 17:10 36.35619 -77.77706 28141 ft 427 kts 243°
2026-04-22 17:10 36.34107 -77.80898 28421 ft 429 kts 243°
2026-04-22 17:10 36.32611 -77.84051 28706 ft 430 kts 243°
2026-04-22 17:10 36.31083 -77.87266 28987 ft 432 kts 243°
2026-04-22 17:11 36.29549 -77.90494 29268 ft 434 kts 243°
2026-04-22 17:11 36.28010 -77.93733 29556 ft 435 kts 243°
2026-04-22 17:11 36.26470 -77.96972 29825 ft 437 kts 243°
2026-04-22 17:11 36.24938 -78.00190 30060 ft 440 kts 243°
2026-04-22 17:12 36.23376 -78.03468 30384 ft 440 kts 243°
2026-04-22 17:12 36.21818 -78.06731 30700 ft 439 kts 243°
2026-04-22 17:12 36.20255 -78.09999 30984 ft 440 kts 243°
2026-04-22 17:12 36.18714 -78.13223 31228 ft 441 kts 243°
2026-04-22 17:13 36.17144 -78.16501 31444 ft 443 kts 243°
2026-04-22 17:13 36.15572 -78.19783 31681 ft 443 kts 243°
2026-04-22 17:13 36.13996 -78.23068 31964 ft 443 kts 243°
2026-04-22 17:13 36.12415 -78.26355 32237 ft 443 kts 243°
2026-04-22 17:14 36.10843 -78.29629 32496 ft 443 kts 243°
2026-04-22 17:14 36.09267 -78.32914 32764 ft 443 kts 243°
2026-04-22 17:14 36.07692 -78.36190 33019 ft 443 kts 243°
2026-04-22 17:14 36.06135 -78.39423 33272 ft 443 kts 243°
2026-04-22 17:15 36.05067 -78.41633 33440 ft 444 kts 243°
2026-04-22 17:15 36.02963 -78.45983 33777 ft 444 kts 243°
2026-04-22 17:15 36.01371 -78.49272 34000 ft 444 kts 243°
2026-04-22 17:15 35.99796 -78.52521 34172 ft 445 kts 243°
2026-04-22 17:16 35.96605 -78.59104 34199 ft 447 kts 243°
2026-04-22 17:16 35.93409 -78.65682 34191 ft 445 kts 243°
2026-04-22 17:17 35.90218 -78.72242 34204 ft 447 kts 243°
2026-04-22 17:17 35.87466 -78.79038 34201 ft 441 kts 256°
2026-04-22 17:18 35.86274 -78.86417 34204 ft 437 kts 265°
2026-04-22 17:18 35.85380 -78.93797 34209 ft 438 kts 264°
2026-04-22 17:19 35.83527 -79.08649 34181 ft 439 kts 264°
2026-04-22 17:20 35.81673 -79.23537 34190 ft 441 kts 264°
2026-04-22 17:21 35.80259 -79.34773 34208 ft 442 kts 264°
2026-04-22 17:22 35.78840 -79.45986 34212 ft 443 kts 264°
2026-04-22 17:23 35.77395 -79.57251 34211 ft 444 kts 264°
2026-04-22 17:23 35.75943 -79.68534 34212 ft 444 kts 264°
2026-04-22 17:24 35.74969 -79.76024 34213 ft 445 kts 264°
2026-04-22 17:24 35.73980 -79.83579 34211 ft 445 kts 264°
2026-04-22 17:25 35.73008 -79.91057 34210 ft 446 kts 264°
2026-04-22 17:25 35.72013 -79.98638 34213 ft 446 kts 264°
2026-04-22 17:26 35.71007 -80.06178 34213 ft 446 kts 264°
2026-04-22 17:26 35.70009 -80.13684 34209 ft 447 kts 264°
2026-04-22 17:27 35.69003 -80.21248 34196 ft 447 kts 264°
2026-04-22 17:27 35.67991 -80.28776 34198 ft 448 kts 264°
2026-04-22 17:28 35.66968 -80.36347 34202 ft 449 kts 264°
2026-04-22 17:28 35.66116 -80.42647 34205 ft 449 kts 263°
2026-04-22 17:29 35.64092 -80.49998 34209 ft 458 kts 245°
2026-04-22 17:29 35.60647 -80.56629 34196 ft 461 kts 240°
2026-04-22 17:30 35.57120 -80.63216 34235 ft 462 kts 240°
2026-04-22 17:30 35.53593 -80.69817 34248 ft 463 kts 240°
2026-04-22 17:31 35.50045 -80.76429 34261 ft 463 kts 240°
2026-04-22 17:31 35.46496 -80.83029 34270 ft 464 kts 240°
2026-04-22 17:32 35.42944 -80.89628 34264 ft 464 kts 240°
2026-04-22 17:32 35.39393 -80.96212 34203 ft 464 kts 240°
2026-04-22 17:33 35.35825 -81.02804 34221 ft 465 kts 240°
2026-04-22 17:33 35.32241 -81.09416 34225 ft 465 kts 240°
2026-04-22 17:34 35.28663 -81.16002 34231 ft 465 kts 240°
2026-04-22 17:34 35.25062 -81.22626 34233 ft 466 kts 240°
2026-04-22 17:35 35.21497 -81.29181 34218 ft 466 kts 240°
2026-04-22 17:35 35.17884 -81.35801 34209 ft 466 kts 239°
2026-04-22 17:36 35.14290 -81.42361 34212 ft 466 kts 239°
2026-04-22 17:36 35.10659 -81.48977 34213 ft 467 kts 239°
2026-04-22 17:37 35.07050 -81.55550 34214 ft 467 kts 239°
2026-04-22 17:37 35.03436 -81.62125 34227 ft 467 kts 239°
2026-04-22 17:38 34.99804 -81.68697 34223 ft 467 kts 239°
2026-04-22 17:38 34.96164 -81.75246 34235 ft 467 kts 239°
2026-04-22 17:39 34.92506 -81.81821 34248 ft 467 kts 239°
2026-04-22 17:40 34.87058 -81.91625 34255 ft 467 kts 239°
2026-04-22 17:40 34.83391 -81.98210 34257 ft 468 kts 239°
2026-04-22 17:41 34.79751 -82.04719 34252 ft 468 kts 238°
2026-04-22 17:41 34.76072 -82.11277 34260 ft 468 kts 239°
2026-04-22 17:42 34.72398 -82.17822 34252 ft 468 kts 238°
2026-04-22 17:42 34.68746 -82.24317 34259 ft 468 kts 238°
2026-04-22 17:43 34.65061 -82.30859 34261 ft 468 kts 238°
2026-04-22 17:43 34.61376 -82.37394 34261 ft 468 kts 238°
2026-04-22 17:44 34.57711 -82.43878 34246 ft 468 kts 238°
2026-04-22 17:44 34.54002 -82.50421 34253 ft 468 kts 238°
2026-04-22 17:45 34.50315 -82.56923 34256 ft 468 kts 238°
2026-04-22 17:45 34.46631 -82.63409 34254 ft 469 kts 238°
2026-04-22 17:46 34.42909 -82.69957 34238 ft 469 kts 238°
2026-04-22 17:46 34.39196 -82.76475 34247 ft 470 kts 238°
2026-04-22 17:47 34.35481 -82.82982 34242 ft 470 kts 238°
2026-04-22 17:47 34.31759 -82.89458 34251 ft 470 kts 237°
2026-04-22 17:48 34.28658 -82.94833 34260 ft 470 kts 237°
2026-04-22 17:48 34.24300 -83.02414 34255 ft 471 kts 237°
2026-04-22 17:49 34.20550 -83.08932 34258 ft 471 kts 237°
2026-04-22 17:49 34.16810 -83.15397 34269 ft 471 kts 237°
2026-04-22 17:50 34.13028 -83.21917 34270 ft 471 kts 237°
2026-04-22 17:50 34.09283 -83.28373 34282 ft 472 kts 237°
2026-04-22 17:51 34.05524 -83.34858 34286 ft 472 kts 237°
2026-04-22 17:51 34.01754 -83.41338 34290 ft 472 kts 237°
2026-04-22 17:52 33.97974 -83.47814 34285 ft 472 kts 237°
2026-04-22 17:52 33.94181 -83.54293 34279 ft 472 kts 237°
2026-04-22 17:53 33.90416 -83.60725 34284 ft 472 kts 237°
2026-04-22 17:53 33.86659 -83.67226 34287 ft 471 kts 241°
2026-04-22 17:54 33.84022 -83.74322 34291 ft 466 kts 252°
2026-04-22 17:54 33.81804 -83.81699 34297 ft 467 kts 252°
2026-04-22 17:55 33.79958 -83.87786 34293 ft 467 kts 252°
2026-04-22 17:55 33.77364 -83.96331 34286 ft 467 kts 252°
2026-04-22 17:56 33.75140 -84.03647 34285 ft 467 kts 252°
2026-04-22 17:56 33.72893 -84.11011 34270 ft 468 kts 252°
2026-04-22 17:57 33.70651 -84.18341 34273 ft 468 kts 252°
2026-04-22 17:57 33.68409 -84.25670 34284 ft 468 kts 252°
2026-04-22 17:58 33.66160 -84.32994 34282 ft 468 kts 252°
2026-04-22 17:58 33.63940 -84.40357 34297 ft 467 kts 256°
2026-04-22 17:59 33.63044 -84.47979 34298 ft 460 kts 274°
2026-04-22 17:59 33.63258 -84.55628 34298 ft 460 kts 274°
2026-04-22 18:00 33.63419 -84.62034 34284 ft 460 kts 274°
2026-04-22 18:00 33.63631 -84.70983 34287 ft 460 kts 274°
2026-04-22 18:01 33.63809 -84.78619 34272 ft 460 kts 274°
2026-04-22 18:01 33.63983 -84.86301 34292 ft 460 kts 274°
2026-04-22 18:02 33.64160 -84.93964 34315 ft 460 kts 274°
2026-04-22 18:02 33.64331 -85.01613 34319 ft 460 kts 274°
2026-04-22 18:03 33.64497 -85.09321 34322 ft 460 kts 274°
2026-04-22 18:03 33.64654 -85.16961 34321 ft 459 kts 274°
2026-04-22 18:04 33.64808 -85.24619 34330 ft 459 kts 274°
2026-04-22 18:04 33.64963 -85.32280 34278 ft 459 kts 274°
2026-04-22 18:05 33.65108 -85.39958 34266 ft 459 kts 274°
2026-04-22 18:05 33.65251 -85.47625 34262 ft 459 kts 274°
2026-04-22 18:06 33.65388 -85.55280 34271 ft 458 kts 274°
2026-04-22 18:06 33.65521 -85.62867 34271 ft 458 kts 274°
2026-04-22 18:07 33.65627 -85.69279 34272 ft 458 kts 273°
2026-04-22 18:07 33.65765 -85.78180 34272 ft 458 kts 273°
2026-04-22 18:08 33.65886 -85.85838 34274 ft 458 kts 273°
2026-04-22 18:08 33.65997 -85.93461 34273 ft 458 kts 273°
2026-04-22 18:09 33.66084 -85.99871 34252 ft 458 kts 273°
2026-04-22 18:09 33.66211 -86.08742 34255 ft 458 kts 273°
2026-04-22 18:10 33.66293 -86.15104 34256 ft 458 kts 273°
2026-04-22 18:10 33.66388 -86.22784 34273 ft 458 kts 273°
2026-04-22 18:11 33.66478 -86.30431 34274 ft 458 kts 273°
2026-04-22 18:11 33.66561 -86.38045 34285 ft 458 kts 273°
2026-04-22 18:12 33.66641 -86.45717 34284 ft 458 kts 273°
2026-04-22 18:12 33.66715 -86.53340 34291 ft 458 kts 273°
2026-04-22 18:13 33.66787 -86.60973 34279 ft 458 kts 273°
2026-04-22 18:13 33.66854 -86.68659 34279 ft 459 kts 273°
2026-04-22 18:14 33.66911 -86.76315 34279 ft 459 kts 273°
2026-04-22 18:14 33.66966 -86.84004 34281 ft 460 kts 273°
2026-04-22 18:15 33.66842 -86.91624 34278 ft 462 kts 265°
2026-04-22 18:15 33.66012 -86.99317 34251 ft 463 kts 265°
2026-04-22 18:16 33.65181 -87.06948 34247 ft 463 kts 265°
2026-04-22 18:16 33.64331 -87.14647 34228 ft 463 kts 265°
2026-04-22 18:17 33.63487 -87.22297 34222 ft 463 kts 265°
2026-04-22 18:17 33.62642 -87.29946 34229 ft 463 kts 265°
2026-04-22 18:18 33.61791 -87.37596 34214 ft 464 kts 265°
2026-04-22 18:18 33.60933 -87.45269 34219 ft 464 kts 265°
2026-04-22 18:19 33.60072 -87.52928 34224 ft 464 kts 265°
2026-04-22 18:19 33.59201 -87.60610 34230 ft 464 kts 265°
2026-04-22 18:20 33.58328 -87.68321 34225 ft 464 kts 264°
2026-04-22 18:20 33.57448 -87.75977 34213 ft 465 kts 264°
2026-04-22 18:21 33.56565 -87.83662 34213 ft 465 kts 264°
2026-04-22 18:21 33.55679 -87.91306 34220 ft 465 kts 264°
2026-04-22 18:22 33.54779 -87.99006 34227 ft 465 kts 264°
2026-04-22 18:22 33.53878 -88.06688 34223 ft 465 kts 264°
2026-04-22 18:23 33.52969 -88.14369 34199 ft 466 kts 264°
2026-04-22 18:23 33.52056 -88.22095 34202 ft 467 kts 264°
2026-04-22 18:24 33.50689 -88.33614 34207 ft 467 kts 264°
2026-04-22 18:25 33.49295 -88.45211 34255 ft 468 kts 264°
2026-04-22 18:25 33.48538 -88.52929 34248 ft 466 kts 271°
2026-04-22 18:26 33.48468 -88.64587 34254 ft 466 kts 271°
2026-04-22 18:26 33.48420 -88.72364 34258 ft 467 kts 271°
2026-04-22 18:27 33.48367 -88.80131 34257 ft 467 kts 271°
2026-04-22 18:27 33.48308 -88.87899 34247 ft 467 kts 271°
2026-04-22 18:28 33.48246 -88.95666 34253 ft 468 kts 271°
2026-04-22 18:28 33.48175 -89.03488 34256 ft 468 kts 271°
2026-04-22 18:29 33.48097 -89.11267 34247 ft 468 kts 271°
2026-04-22 18:29 33.48017 -89.19079 34249 ft 468 kts 271°
2026-04-22 18:30 33.47882 -89.30766 34237 ft 469 kts 271°
2026-04-22 18:31 33.47792 -89.38582 34235 ft 469 kts 271°
2026-04-22 18:31 33.47694 -89.46417 34239 ft 469 kts 271°
2026-04-22 18:32 33.47587 -89.54245 34230 ft 469 kts 271°
2026-04-22 18:32 33.47478 -89.62036 34231 ft 469 kts 270°
2026-04-22 18:33 33.47366 -89.69843 34226 ft 470 kts 270°
2026-04-22 18:33 33.47258 -89.77668 34228 ft 470 kts 270°
2026-04-22 18:34 33.47137 -89.85507 34228 ft 470 kts 270°
2026-04-22 18:34 33.47005 -89.93303 34227 ft 470 kts 270°
2026-04-22 18:35 33.46869 -90.01137 34219 ft 470 kts 270°
2026-04-22 18:35 33.46733 -90.08957 34220 ft 470 kts 270°
2026-04-22 18:36 33.46589 -90.16799 34219 ft 470 kts 270°
2026-04-22 18:36 33.46374 -90.24593 34219 ft 471 kts 265°
2026-04-22 18:37 33.44726 -90.32208 34223 ft 474 kts 247°
2026-04-22 18:37 33.42503 -90.38189 34220 ft 474 kts 247°
2026-04-22 18:38 33.39372 -90.46619 34214 ft 475 kts 246°
2026-04-22 18:38 33.36702 -90.53823 34217 ft 475 kts 246°
2026-04-22 18:39 33.32675 -90.64643 34224 ft 475 kts 246°
2026-04-22 18:39 33.29961 -90.71890 34225 ft 475 kts 246°
2026-04-22 18:40 33.27267 -90.79077 34226 ft 475 kts 246°
2026-04-22 18:40 33.24558 -90.86304 34229 ft 475 kts 246°
2026-04-22 18:41 33.21871 -90.93457 34236 ft 475 kts 246°
2026-04-22 18:41 33.19155 -91.00660 34230 ft 475 kts 246°
2026-04-22 18:42 33.16439 -91.07847 34234 ft 475 kts 246°